| time (UTC) | temp F | wind direction | speed knots | gust knots | rain 1hr in | rain 24hr in | rain mn in | humidity % | barometer mb |
| 20260504060141 | 46 | 311 | 7.0 | 13.9 | 0.00 | 0.00 | 0.00 | 80 | 998.3 |
| 20260504050530 | 49 | 317 | 18.2 | 26.9 | 0.00 | 0.00 | 0.00 | 70 | |
| 20260504050108 | 48 | 325 | 16.5 | 26.9 | 0.00 | 0.00 | 0.00 | 70 | 998.7 |
| 20260504050024 | 49 | 355 | 16.5 | 26.9 | 0.00 | 0.00 | 0.00 | 70 | |
| 20260504045531 | 49 | 346 | 15.6 | 24.3 | 0.00 | 0.00 | 0.00 | 69 | |
| 20260504045048 | 49 | 333 | 14.8 | 24.3 | 0.00 | 0.00 | 0.00 | 68 | |
| 20260504044609 | 49 | 338 | 13.0 | 25.2 | 0.00 | 0.00 | 0.00 | 68 | 998.6 |
| 20260504044520 | 49 | 345 | 13.9 | 25.2 | 0.00 | 0.00 | 0.00 | 68 | |
| 20260504044015 | 49 | 332 | 18.2 | 24.3 | 0.00 | 0.00 | 0.00 | 68 | |
| 20260504043530 | 50 | 355 | 15.6 | 26.1 | 0.00 | 0.00 | 0.00 | 68 | |
| 20260504043038 | 49 | 340 | 16.5 | 29.5 | 0.00 | 0.00 | 0.00 | 68 | 998.5 |
| 20260504043024 | 50 | 340 | 15.6 | 29.5 | 0.00 | 0.00 | 0.00 | 68 | |
| 20260504042521 | 50 | 350 | 20.9 | 29.5 | 0.00 | 0.00 | 0.00 | 67 | |
| 20260504042037 | 50 | 355 | 16.5 | 32.2 | 0.00 | 0.00 | 0.00 | 67 | |
| 20260504041533 | 51 | 331 | 21.7 | 32.2 | 0.00 | 0.00 | 0.00 | 66 | |
| 20260504041517 | 50 | 331 | 20.9 | 32.2 | 0.00 | 0.00 | 0.00 | 66 | 998.0 |
| 20260504041027 | 51 | 331 | 21.7 | 30.4 | 0.00 | 0.00 | 0.00 | 66 | |
| 20260504040521 | 51 | 327 | 17.4 | 28.7 | 0.00 | 0.00 | 0.00 | 66 | |
| 20260504040105 | 51 | 322 | 17.4 | 28.7 | 0.00 | 0.00 | 0.00 | 67 | 997.7 |
| 20260504040037 | 51 | 9 | 16.5 | 28.7 | 0.00 | 0.00 | 0.00 | 67 | |
| 20260504035554 | 52 | 342 | 15.6 | 27.8 | 0.00 | 0.00 | 0.00 | 66 | |
| 20260504035028 | 52 | 333 | 17.4 | 27.8 | 0.00 | 0.00 | 0.00 | 64 | |
| 20260504034607 | 52 | 325 | 18.2 | 31.3 | 0.00 | 0.00 | 0.00 | 63 | 997.3 |
| 20260504034523 | 53 | 338 | 18.2 | 31.3 | 0.00 | 0.00 | 0.00 | 62 | |
| 20260504034018 | 54 | 342 | 21.7 | 31.3 | 0.00 | 0.00 | 0.00 | 61 | |
| 20260504033534 | 56 | 333 | 20.0 | 30.4 | 0.00 | 0.00 | 0.00 | 57 | |
| 20260504033043 | 60 | 341 | 14.8 | 26.1 | 0.00 | 0.00 | 0.00 | 50 | 996.1 |
| 20260504033029 | 60 | 28 | 15.6 | 26.1 | 0.00 | 0.00 | 0.00 | 49 | |
| 20260504032524 | 63 | 293 | 10.4 | 16.5 | 0.00 | 0.00 | 0.00 | 48 | |
| 20260504032039 | 63 | 269 | 8.7 | 13.0 | 0.00 | 0.00 | 0.00 | 46 | |
| 20260504031605 | 63 | 249 | 7.8 | 13.0 | 0.00 | 0.00 | 0.00 | 45 | 994.7 |
| 20260504031549 | 64 | 257 | 9.6 | 13.0 | 0.00 | 0.00 | 0.00 | 44 | |
| 20260504031024 | 64 | 266 | 7.8 | 13.9 | 0.00 | 0.00 | 0.00 | 44 | |
| 20260504030518 | 65 | 271 | 9.6 | 15.6 | 0.00 | 0.00 | 0.00 | 44 | |
| 20260504030106 | 64 | 248 | 9.6 | 17.4 | 0.00 | 0.00 | 0.00 | 44 | 994.9 |
| 20260504030031 | 65 | 281 | 9.6 | 19.1 | 0.00 | 0.00 | 0.00 | 43 | |
| 20260504025547 | 65 | 279 | 12.2 | 20.9 | 0.00 | 0.00 | 0.00 | 43 | |
| 20260504025041 | 66 | 272 | 13.9 | 26.9 | 0.00 | 0.00 | 0.00 | 41 | |
| 20260504024602 | 67 | 281 | 18.2 | 31.3 | 0.00 | 0.00 | 0.00 | 39 | 995.6 |
| 20260504024533 | 67 | 256 | 18.2 | 31.3 | 0.00 | 0.00 | 0.00 | 39 | |
| 20260504024029 | 68 | 279 | 15.6 | 27.8 | 0.00 | 0.00 | 0.00 | 37 | |
| 20260504023524 | 67 | 273 | 12.2 | 22.6 | 0.00 | 0.00 | 0.00 | 39 | |
| 20260504023114 | 68 | 270 | 14.8 | 35.6 | 0.00 | 0.00 | 0.00 | 37 | 995.8 |
| 20260504023017 | 68 | 262 | 14.8 | 35.6 | 0.00 | 0.00 | 0.00 | 37 | |
| 20260504022533 | 68 | 287 | 18.2 | 35.6 | 0.00 | 0.00 | 0.00 | 36 | |
| 20260504022026 | 68 | 266 | 15.6 | 26.1 | 0.00 | 0.00 | 0.00 | 36 | |
| 20260504021542 | 65 | 282 | 18.2 | 26.1 | 0.00 | 0.00 | 0.00 | 38 | 995.9 |
| 20260504021521 | 66 | 290 | 19.1 | 26.1 | 0.00 | 0.00 | 0.00 | 39 | |
| 20260504021015 | 65 | 267 | 7.8 | 11.3 | 0.00 | 0.00 | 0.00 | 41 | |
| 20260504020531 | 65 | 247 | 8.7 | 11.3 | 0.00 | 0.00 | 0.00 | 40 | |
| 20260504020100 | 66 | 252 | 7.8 | 13.9 | 0.00 | 0.00 | 0.00 | 39 | 995.0 |
| 20260504020026 | 66 | 260 | 7.8 | 13.9 | 0.00 | 0.00 | 0.00 | 38 | |
| 20260504015521 | 66 | 250 | 8.7 | 13.9 | 0.00 | 0.00 | 0.00 | 38 | |
| 20260504015016 | 67 | 245 | 9.6 | 14.8 | 0.00 | 0.00 | 0.00 | 38 | |
| 20260504014530 | 66 | 234 | 9.6 | 14.8 | 0.00 | 0.00 | 0.00 | 38 | |
| 20260504014503 | 66 | 240 | 8.7 | 14.8 | 0.00 | 0.00 | 0.00 | 38 | 995.1 |
| 20260504014044 | 66 | 259 | 7.8 | 14.8 | 0.00 | 0.00 | 0.00 | 39 | |
| 20260504013517 | 66 | 250 | 7.8 | 12.2 | 0.00 | 0.00 | 0.00 | 39 | |
| 20260504013032 | 66 | 240 | 8.7 | 13.9 | 0.00 | 0.00 | 0.00 | 38 | |
| 20260504013012 | 66 | 246 | 7.8 | 13.9 | 0.00 | 0.00 | 0.00 | 38 | 995.4 |
| 20260504012529 | 67 | 256 | 8.7 | 13.9 | 0.00 | 0.00 | 0.00 | 38 | |
| 20260504012024 | 67 | 244 | 7.8 | 13.0 | 0.00 | 0.00 | 0.00 | 38 | |
| 20260504011552 | 67 | 238 | 8.7 | 13.9 | 0.00 | 0.00 | 0.00 | 37 | 995.7 |
| 20260504011518 | 67 | 238 | 9.6 | 13.9 | 0.00 | 0.00 | 0.00 | 38 | |
| 20260504011032 | 67 | 244 | 9.6 | 13.9 | 0.00 | 0.00 | 0.00 | 38 | |
| 20260504010529 | 66 | 245 | 7.8 | 11.3 | 0.00 | 0.00 | 0.00 | 40 | |
| 20260504010117 | 66 | 226 | 7.0 | 13.0 | 0.00 | 0.00 | 0.00 | 40 | 996.1 |
| 20260504010024 | 66 | 256 | 7.8 | 13.0 | 0.00 | 0.00 | 0.00 | 40 | |
| 20260504005538 | 66 | 239 | 8.7 | 13.0 | 0.00 | 0.00 | 0.00 | 39 | |
| 20260504005033 | 66 | 242 | 7.0 | 11.3 | 0.00 | 0.00 | 0.00 | 40 | |
| 20260504004621 | 66 | 249 | 6.1 | 9.6 | 0.00 | 0.00 | 0.00 | 40 | 996.5 |
| 20260504004528 | 66 | 247 | 6.1 | 9.6 | 0.00 | 0.00 | 0.00 | 40 | |
| 20260504004021 | 67 | 245 | 5.2 | 8.7 | 0.00 | 0.00 | 0.00 | 39 | |
| 20260504003531 | 67 | 239 | 5.2 | 11.3 | 0.00 | 0.00 | 0.00 | 38 | |
| 20260504003053 | 67 | 258 | 6.1 | 11.3 | 0.00 | 0.00 | 0.00 | 39 | 996.9 |
| 20260504003024 | 67 | 260 | 7.0 | 11.3 | 0.00 | 0.00 | 0.00 | 39 | |
| 20260504002519 | 67 | 244 | 7.0 | 10.4 | 0.00 | 0.00 | 0.00 | 38 | |
| 20260504002033 | 68 | 244 | 7.8 | 12.2 | 0.00 | 0.00 | 0.00 | 37 | |
| 20260504001614 | 68 | 254 | 7.8 | 14.8 | 0.00 | 0.00 | 0.00 | 36 | 997.3 |
| 20260504001528 | 68 | 259 | 7.8 | 14.8 | 0.00 | 0.00 | 0.00 | 36 | |
| 20260504001023 | 68 | 243 | 8.7 | 14.8 | 0.00 | 0.00 | 0.00 | 35 | |
| 20260504000519 | 69 | 249 | 9.6 | 16.5 | 0.00 | 0.00 | 0.00 | 35 | |
| 20260504000113 | 68 | 238 | 11.3 | 20.0 | 0.00 | 0.00 | 0.00 | 34 | 997.8 |
| 20260504000033 | 69 | 268 | 11.3 | 20.0 | 0.00 | 0.00 | 0.00 | 34 | |
| 20260503235526 | 70 | 253 | 13.0 | 20.0 | 0.00 | 0.00 | 0.00 | 33 | |
| 20260503235019 | 71 | 263 | 12.2 | 19.1 | 0.00 | 0.00 | 0.00 | 32 | |
| 20260503234609 | 71 | 261 | 12.2 | 21.7 | 0.00 | 0.00 | 0.00 | 30 | 998.1 |
| 20260503234515 | 72 | 275 | 13.0 | 21.7 | 0.00 | 0.00 | 0.00 | 30 | |
| 20260503234032 | 71 | 264 | 13.9 | 21.7 | 0.00 | 0.00 | 0.00 | 30 | |
| 20260503233525 | 71 | 247 | 13.9 | 22.6 | 0.00 | 0.00 | 0.00 | 32 | |
| 20260503233036 | 70 | 253 | 13.0 | 22.6 | 0.00 | 0.00 | 0.00 | 33 | 998.4 |
| 20260503233020 | 70 | 255 | 13.9 | 22.6 | 0.00 | 0.00 | 0.00 | 33 | |
| 20260503232535 | 70 | 249 | 10.4 | 17.4 | 0.00 | 0.00 | 0.00 | 35 | |
| 20260503232029 | 70 | 250 | 11.3 | 17.4 | 0.00 | 0.00 | 0.00 | 35 | |
| 20260503231601 | 69 | 255 | 11.3 | 15.6 | 0.00 | 0.00 | 0.00 | 34 | 998.6 |
| 20260503231524 | 69 | 234 | 12.2 | 15.6 | 0.00 | 0.00 | 0.00 | 34 | |
| 20260503231019 | 69 | 241 | 10.4 | 15.6 | 0.00 | 0.00 | 0.00 | 35 | |
| 20260503230533 | 69 | 240 | 9.6 | 14.8 | 0.00 | 0.00 | 0.00 | 34 | |
| 20260503230122 | 69 | 267 | 10.4 | 15.6 | 0.00 | 0.00 | 0.00 | 34 | 999.0 |
| 20260503230028 | 69 | 251 | 11.3 | 15.6 | 0.00 | 0.00 | 0.00 | 35 | |
| 20260503225537 | 70 | 254 | 11.3 | 20.0 | 0.00 | 0.00 | 0.00 | 33 | |
| 20260503225053 | 70 | 251 | 11.3 | 20.9 | 0.00 | 0.00 | 0.00 | 34 | |
| 20260503224526 | 70 | 261 | 12.2 | 20.9 | 0.00 | 0.00 | 0.00 | 33 | |
| 20260503224503 | 70 | 288 | 12.2 | 20.9 | 0.00 | 0.00 | 0.00 | 33 | 999.4 |
| 20260503224020 | 71 | 259 | 13.9 | 20.0 | 0.00 | 0.00 | 0.00 | 31 | |
| 20260503223517 | 71 | 251 | 15.6 | 20.9 | 0.00 | 0.00 | 0.00 | 30 | |
| 20260503223051 | 70 | 250 | 12.2 | 20.9 | 0.00 | 0.00 | 0.00 | 31 | 999.8 |
| 20260503223032 | 71 | 275 | 13.0 | 20.9 | 0.00 | 0.00 | 0.00 | 30 | |
| 20260503222545 | 70 | 265 | 13.0 | 21.7 | 0.00 | 0.00 | 0.00 | 32 | |
| 20260503222020 | 70 | 250 | 14.8 | 21.7 | 0.00 | 0.00 | 0.00 | 31 | |
| 20260503221557 | 71 | 252 | 12.2 | 23.5 | 0.00 | 0.00 | 0.00 | 31 | 1000.0 |
| 20260503221536 | 71 | 244 | 13.0 | 23.5 | 0.00 | 0.00 | 0.00 | 31 | |
| 20260503221051 | 71 | 278 | 14.8 | 25.2 | 0.00 | 0.00 | 0.00 | 30 | |
| 20260503220544 | 70 | 270 | 16.5 | 25.2 | 0.00 | 0.00 | 0.00 | 30 | |
| 20260503220032 | 70 | 254 | 13.0 | 23.5 | 0.00 | 0.00 | 0.00 | 32 | 1000.4 |
| 20260503220017 | 70 | 246 | 13.0 | 23.5 | 0.00 | 0.00 | 0.00 | 32 | |
| 20260503215529 | 71 | 256 | 15.6 | 24.3 | 0.00 | 0.00 | 0.00 | 29 | |
| 20260503215025 | 71 | 272 | 14.8 | 27.8 | 0.00 | 0.00 | 0.00 | 29 | |
| 20260503214555 | 70 | 261 | 17.4 | 27.8 | 0.00 | 0.00 | 0.00 | 29 | 1000.6 |
| 20260503214541 | 71 | 251 | 16.5 | 24.3 | 0.00 | 0.00 | 0.00 | 29 | |
| 20260503214035 | 70 | 245 | 14.8 | 23.5 | 0.00 | 0.00 | 0.00 | 30 | |
| 20260503213528 | 71 | 239 | 13.0 | 27.8 | 0.00 | 0.00 | 0.00 | 32 | |
| 20260503213104 | 71 | 276 | 17.4 | 27.8 | 0.00 | 0.00 | 0.00 | 27 | 1001.0 |
| 20260503213023 | 72 | 250 | 16.5 | 27.8 | 0.00 | 0.00 | 0.00 | 28 | |
| 20260503212538 | 71 | 266 | 16.5 | 23.5 | 0.00 | 0.00 | 0.00 | 28 | |
| 20260503212051 | 71 | 272 | 15.6 | 23.5 | 0.00 | 0.00 | 0.00 | 29 | |
| 20260503211621 | 71 | 263 | 13.9 | 25.2 | 0.00 | 0.00 | 0.00 | 29 | 1001.4 |
| 20260503211523 | 71 | 250 | 13.9 | 25.2 | 0.00 | 0.00 | 0.00 | 28 | |
| 20260503211015 | 71 | 281 | 16.5 | 26.1 | 0.00 | 0.00 | 0.00 | 28 | |
| 20260503210529 | 71 | 278 | 18.2 | 25.2 | 0.00 | 0.00 | 0.00 | 27 | |
| 20260503210023 | 70 | 275 | 13.0 | 21.7 | 0.00 | 0.00 | 0.00 | 30 | |
| 20260503210005 | 70 | 270 | 13.9 | 21.7 | 0.00 | 0.00 | 0.00 | 30 | 1001.9 |
| 20260503205516 | 71 | 249 | 14.8 | 21.7 | 0.00 | 0.00 | 0.00 | 30 | |
| 20260503205032 | 70 | 270 | 13.9 | 21.7 | 0.00 | 0.00 | 0.00 | 31 | |
| 20260503204555 | 69 | 273 | 12.2 | 20.0 | 0.00 | 0.00 | 0.00 | 31 | 1002.2 |
| 20260503204528 | 69 | 248 | 11.3 | 20.0 | 0.00 | 0.00 | 0.00 | 31 | |
| 20260503204024 | 69 | 241 | 12.2 | 19.1 | 0.00 | 0.00 | 0.00 | 32 | |
| 20260503203521 | 69 | 269 | 12.2 | 22.6 | 0.00 | 0.00 | 0.00 | 33 | |
| 20260503203117 | 68 | 248 | 13.0 | 22.6 | 0.00 | 0.00 | 0.00 | 32 | 1002.5 |
| 20260503203037 | 69 | 245 | 13.0 | 22.6 | 0.00 | 0.00 | 0.00 | 32 | |
| 20260503202552 | 69 | 262 | 17.4 | 23.5 | 0.00 | 0.00 | 0.00 | 30 | |
| 20260503202025 | 69 | 284 | 16.5 | 26.1 | 0.00 | 0.00 | 0.00 | 30 | |
| 20260503201616 | 70 | 275 | 17.4 | 26.1 | 0.00 | 0.00 | 0.00 | 30 | 1003.0 |
| 20260503201541 | 70 | 244 | 17.4 | 26.1 | 0.00 | 0.00 | 0.00 | 30 | |
| 20260503201036 | 71 | 248 | 15.6 | 24.3 | 0.00 | 0.00 | 0.00 | 30 | |
| 20260503200531 | 70 | 240 | 15.6 | 22.6 | 0.00 | 0.00 | 0.00 | 30 | |
| 20260503200115 | 70 | 254 | 13.0 | 26.1 | 0.00 | 0.00 | 0.00 | 31 | 1003.4 |
| 20260503200024 | 70 | 258 | 13.0 | 26.1 | 0.00 | 0.00 | 0.00 | 33 | |
| 20260503195538 | 70 | 243 | 13.9 | 26.1 | 0.00 | 0.00 | 0.00 | 31 | |
| 20260503195032 | 70 | 254 | 14.8 | 21.7 | 0.00 | 0.00 | 0.00 | 32 | |
| 20260503194612 | 68 | 250 | 13.9 | 24.3 | 0.00 | 0.00 | 0.00 | 32 | 1003.8 |
| 20260503194527 | 69 | 258 | 13.9 | 24.3 | 0.00 | 0.00 | 0.00 | 32 | |
| 20260503194038 | 69 | 260 | 15.6 | 24.3 | 0.00 | 0.00 | 0.00 | 32 | |
| 20260503193532 | 69 | 248 | 15.6 | 24.3 | 0.00 | 0.00 | 0.00 | 32 | |
| 20260503193115 | 68 | 268 | 13.9 | 22.6 | 0.00 | 0.00 | 0.00 | 32 | 1004.1 |
| 20260503193027 | 69 | 267 | 14.8 | 22.6 | 0.00 | 0.00 | 0.00 | 33 | |
| 20260503192518 | 69 | 270 | 13.0 | 23.5 | 0.00 | 0.00 | 0.00 | 32 | |
| 20260503192042 | 69 | 250 | 15.6 | 23.5 | 0.00 | 0.00 | 0.00 | 33 | |
| 20260503191534 | 69 | 250 | 13.0 | 22.6 | 0.00 | 0.00 | 0.00 | 33 | |
| 20260503191502 | 68 | 254 | 12.2 | 22.6 | 0.00 | 0.00 | 0.00 | 32 | 1004.5 |
| 20260503191028 | 69 | 259 | 13.9 | 24.3 | 0.00 | 0.00 | 0.00 | 33 | |
| 20260503190522 | 69 | 243 | 13.9 | 27.8 | 0.00 | 0.00 | 0.00 | 34 | |
| 20260503190034 | 69 | 274 | 11.3 | 21.7 | 0.00 | 0.00 | 0.00 | 34 | |
| 20260503185529 | 69 | 251 | 14.8 | 20.0 | 0.00 | 0.00 | 0.00 | 34 | |
| 20260503185026 | 68 | 263 | 13.0 | 17.4 | 0.00 | 0.00 | 0.00 | 33 | |
| 20260503184615 | 68 | 234 | 12.2 | 17.4 | 0.00 | 0.00 | 0.00 | 34 | 1005.1 |
| 20260503184522 | 68 | 244 | 13.0 | 17.4 | 0.00 | 0.00 | 0.00 | 33 | |
| 20260503184035 | 68 | 250 | 11.3 | 19.1 | 0.00 | 0.00 | 0.00 | 35 | |
| 20260503183529 | 68 | 254 | 8.7 | 19.1 | 0.00 | 0.00 | 0.00 | 35 | |
| 20260503183138 | 67 | 244 | 10.4 | 18.2 | 0.00 | 0.00 | 0.00 | 35 | 1005.8 |
| 20260503183042 | 67 | 256 | 10.4 | 18.2 | 0.00 | 0.00 | 0.00 | 34 | |
| 20260503182515 | 67 | 261 | 10.4 | 18.2 | 0.00 | 0.00 | 0.00 | 36 | |
| 20260503182030 | 67 | 250 | 11.3 | 15.6 | 0.00 | 0.00 | 0.00 | 35 | |
| 20260503181635 | 66 | 267 | 10.4 | 15.6 | 0.00 | 0.00 | 0.00 | 36 | 1006.4 |
| 20260503181545 | 66 | 233 | 12.2 | 15.6 | 0.00 | 0.00 | 0.00 | 35 | |
| 20260503181037 | 66 | 268 | 10.4 | 19.1 | 0.00 | 0.00 | 0.00 | 36 | |
| 20260503180552 | 66 | 238 | 13.0 | 19.1 | 0.00 | 0.00 | 0.00 | 36 | |
| 20260503180118 | 65 | 258 | 9.6 | 20.0 | 0.00 | 0.00 | 0.00 | 37 | 1007.0 |
| 20260503180026 | 66 | 256 | 10.4 | 20.0 | 0.00 | 0.00 | 0.00 | 37 | |
| 20260503175519 | 65 | 261 | 11.3 | 20.9 | 0.00 | 0.00 | 0.00 | 38 | |
| 20260503175034 | 64 | 228 | 13.9 | 20.9 | 0.00 | 0.00 | 0.00 | 37 | |
| 20260503174551 | 64 | 236 | 12.2 | 19.1 | 0.00 | 0.00 | 0.00 | 37 | 1007.6 |
| 20260503174529 | 64 | 226 | 13.0 | 19.1 | 0.00 | 0.00 | 0.00 | 38 | |
| 20260503174022 | 64 | 252 | 8.7 | 18.2 | 0.00 | 0.00 | 0.00 | 38 | |
| 20260503173535 | 64 | 227 | 12.2 | 19.1 | 0.00 | 0.00 | 0.00 | 37 | |
| 20260503173058 | 63 | 252 | 11.3 | 19.1 | 0.00 | 0.00 | 0.00 | 39 | 1008.1 |
| 20260503173027 | 64 | 248 | 12.2 | 19.1 | 0.00 | 0.00 | 0.00 | 38 | |
| 20260503172520 | 63 | 241 | 12.2 | 19.1 | 0.00 | 0.00 | 0.00 | 39 | |
| 20260503172017 | 63 | 236 | 13.0 | 17.4 | 0.00 | 0.00 | 0.00 | 38 | |
| 20260503171617 | 62 | 234 | 11.3 | 15.6 | 0.00 | 0.00 | 0.00 | 39 | 1008.5 |
| 20260503171531 | 63 | 234 | 11.3 | 15.6 | 0.00 | 0.00 | 0.00 | 40 | |
| 20260503171027 | 62 | 261 | 8.7 | 13.9 | 0.00 | 0.00 | 0.00 | 40 | |
| 20260503170543 | 62 | 242 | 10.4 | 14.8 | 0.00 | 0.00 | 0.00 | 40 | |
| 20260503170119 | 60 | 221 | 8.7 | 16.5 | 0.00 | 0.00 | 0.00 | 41 | 1008.7 |
| 20260503150541 | 52 | 240 | 7.0 | 9.6 | 0.00 | 0.00 | 0.00 | 56 | |
| 20260503150116 | 51 | 248 | 6.1 | 9.6 | 0.00 | 0.00 | 0.00 | 58 | 1010.9 |
| 20260503131023 | 44 | 271 | 5.2 | 7.0 | 0.00 | 0.00 | 0.00 | 77 | |
| 20260503130539 | 43 | 267 | 4.3 | 6.1 | 0.00 | 0.00 | 0.00 | 77 | |
| 20260503130116 | 43 | 263 | 2.6 | 6.1 | 0.00 | 0.00 | 0.00 | 78 | 1012.0 |
| 20260503110534 | 37 | 355 | 0.9 | 1.7 | 0.00 | 0.00 | 0.00 | 85 | |
| 20260503110116 | 37 | 355 | 0.0 | 1.7 | 0.00 | 0.00 | 0.00 | 84 | 1011.9 |
| 20260503100114 | 37 | 355 | 0.9 | 2.6 | 0.00 | 0.00 | 0.00 | 83 | 1012.2 |
| 20260503081619 | 39 | 355 | 0.0 | 2.6 | 0.00 | 0.00 | 0.00 | 82 | 1012.1 |
| 20260503081516 | 40 | 355 | 0.9 | 2.6 | 0.00 | 0.00 | 0.00 | 82 | |
| 20260503081032 | 40 | 355 | 1.7 | 3.5 | 0.00 | 0.00 | 0.00 | 82 | |
| 20260503080524 | 40 | 355 | 1.7 | 3.5 | 0.00 | 0.00 | 0.00 | 82 | |
| 20260503072520 | 42 | 355 | 0.0 | 0.0 | 0.00 | 0.00 | 0.00 | 77 | |
| 20260503072016 | 43 | 355 | 0.0 | 1.7 | 0.00 | 0.00 | 0.00 | 77 | |
| 20260503071606 | 42 | 355 | 0.0 | 2.6 | 0.00 | 0.00 | 0.00 | 76 | 1012.0 |
| 20260503071532 | 43 | 355 | 0.9 | 2.6 | 0.00 | 0.00 | 0.00 | 77 | |
| 20260503071027 | 43 | 355 | 1.7 | 3.5 | 0.00 | 0.00 | 0.00 | 77 | |
| 20260503070523 | 43 | 355 | 1.7 | 3.5 | 0.00 | 0.00 | 0.00 | 78 |